sat.trackr.live / text

‹ back to catalog

KUIPER-00434

NORAD 68938 · 2026-098V

PAYLOAD ACTIVE UNKNOWN

§ Identity

Operator
Country
US
Launch date
2026-04-30
Launch site
FRGUI
Launch vehicle
Mass (kg)
RCS (m²)

External: N2YO · Heavens-Above · Gunter

§ Orbital elements

Epoch: 2026-09-19T07:47:35.791584Z

Period
97.54 min
Inclination
51.9027°
Eccentricity
0.0001521
Mean motion
14.76392810 rev/d
Perigee alt
639.7 km
Apogee alt
641.8 km
Semi-major
7,018.9 km
B*
2.1512e-4
RAAN
3.3225°
Arg perigee
133.5811°
Mean anomaly
226.5276°
Rev number
2,140

§ Raw data

KUIPER-004341 68938U 26098V   26262.32471981  .00001294  00000+0  21512-3 0  99912 68938  51.9027   3.3225 0001521 133.5811 226.5276 14.76392810 21404

JSON: /api/v1/satellites/68938 · /tle

For live sub-satellite position, see the globe view (requires WebGL).

§ Visibility from observer

Set your observer location to see the next 7 days of passes ≥ 10°. The values pass through the URL so the page stays shareable.

No JS? Fill the form by hand. The geolocation button needs JavaScript.